Satellite: NOAA-10 Catalog number: 16969 Epoch time: 11090.19475867 Element set: 447 Inclination: 098.6264 deg RA of node: 121.0166 deg Eccentricity: 0.0013150 Arg of perigee: 092.9048 deg Mean anomaly: 267.3637 deg Mean motion: 14.27450115 rev/day Decay rate: 3.1e-07 rev/day^2 Epoch rev: 27652 Checksum: 300
Satellite: NOAA-11 Catalog number: 19531 Epoch time: 11090.27226277 Element set: 454 Inclination: 098.7504 deg RA of node: 179.2108 deg Eccentricity: 0.0012014 Arg of perigee: 053.1370 deg Mean anomaly: 307.0883 deg Mean motion: 14.14908626 rev/day Decay rate: -1.3e-07 rev/day^2 Epoch rev: 16173 Checksum: 272
Satellite: NOAA-12 Catalog number: 21263 Epoch time: 11090.60759744 Element set: 948 Inclination: 098.7565 deg RA of node: 108.5769 deg Eccentricity: 0.0013312 Arg of perigee: 054.6057 deg Mean anomaly: 305.6363 deg Mean motion: 14.25694683 rev/day Decay rate: 9.3e-07 rev/day^2 Epoch rev: 3335 Checksum: 315
Satellite: MET-3/5 Catalog number: 21655 Epoch time: 11089.81030567 Element set: 73 Inclination: 082.5534 deg RA of node: 106.1552 deg Eccentricity: 0.0013505 Arg of perigee: 359.2770 deg Mean anomaly: 000.8293 deg Mean motion: 13.17025365 rev/day Decay rate: 5.1e-07 rev/day^2 Epoch rev: 94340 Checksum: 272
Satellite: MET-2/21 Catalog number: 22782 Epoch time: 11090.37539017 Element set: 56 Inclination: 082.5500 deg RA of node: 024.6081 deg Eccentricity: 0.0021533 Arg of perigee: 320.8622 deg Mean anomaly: 039.0996 deg Mean motion: 13.83656853 rev/day Decay rate: 1.45e-06 rev/day^2 Epoch rev: 88779 Checksum: 304
Satellite: OKEAN-4 Catalog number: 23317 Epoch time: 11089.96612584 Element set: 0550 Inclination: 082.5366 deg RA of node: 086.1740 deg Eccentricity: 0.0022994 Arg of perigee: 021.1101 deg Mean anomaly: 339.1069 deg Mean motion: 14.82979885 rev/day Decay rate: 9.12e-06 rev/day^2 Epoch rev: 88895 Checksum: 330
Satellite: NOAA-14 Catalog number: 23455 Epoch time: 11090.47180299 Element set: 433 Inclination: 098.8542 deg RA of node: 173.8758 deg Eccentricity: 0.0009823 Arg of perigee: 136.1160 deg Mean anomaly: 224.0795 deg Mean motion: 14.13811233 rev/day Decay rate: 5.4e-07 rev/day^2 Epoch rev: 83809 Checksum: 304
Satellite: NOAA-15 Catalog number: 25338 Epoch time: 11090.22124853 Element set: 761 Inclination: 098.6502 deg RA of node: 077.4553 deg Eccentricity: 0.0010088 Arg of perigee: 323.9475 deg Mean anomaly: 036.1066 deg Mean motion: 14.24894641 rev/day Decay rate: 1.35e-06 rev/day^2 Epoch rev: 66962 Checksum: 303
Satellite: RESURS Catalog number: 25394 Epoch time: 11089.98551496 Element set: 0777 Inclination: 098.3011 deg RA of node: 097.3169 deg Eccentricity: 0.0002309 Arg of perigee: 088.4464 deg Mean anomaly: 271.6982 deg Mean motion: 14.24226708 rev/day Decay rate: -7.0e-08 rev/day^2 Epoch rev: 66117 Checksum: 326
Satellite: FENGYUN1 Catalog number: 25730 Epoch time: 11089.89423326 Element set: 290 Inclination: 098.8138 deg RA of node: 052.8271 deg Eccentricity: 0.0022692 Arg of perigee: 168.3317 deg Mean anomaly: 191.8383 deg Mean motion: 14.08551697 rev/day Decay rate: 4.93e-06 rev/day^2 Epoch rev: 61204 Checksum: 314
Satellite: OKEAN-0 Catalog number: 25860 Epoch time: 11090.69439724 Element set: 269 Inclination: 097.8754 deg RA of node: 059.3110 deg Eccentricity: 0.0000651 Arg of perigee: 073.2524 deg Mean anomaly: 286.8756 deg Mean motion: 14.73736141 rev/day Decay rate: 3.19e-06 rev/day^2 Epoch rev: 62924 Checksum: 312
Satellite: NOAA-16 Catalog number: 26536 Epoch time: 11090.23496504 Element set: 243 Inclination: 099.1480 deg RA of node: 119.1694 deg Eccentricity: 0.0009828 Arg of perigee: 249.5525 deg Mean anomaly: 110.4610 deg Mean motion: 14.12603747 rev/day Decay rate: -1.52e-06 rev/day^2 Epoch rev: 54235 Checksum: 289
Satellite: NOAA-17 Catalog number: 27453 Epoch time: 11090.47796533 Element set: 237 Inclination: 098.3884 deg RA of node: 133.7248 deg Eccentricity: 0.0012029 Arg of perigee: 021.8305 deg Mean anomaly: 338.3384 deg Mean motion: 14.24251326 rev/day Decay rate: 1.08e-06 rev/day^2 Epoch rev: 45559 Checksum: 306
Satellite: NOAA-18 Catalog number: 28654 Epoch time: 11090.40738435 Element set: 719 Inclination: 098.9881 deg RA of node: 041.3945 deg Eccentricity: 0.0013995 Arg of perigee: 327.1036 deg Mean anomaly: 032.9250 deg Mean motion: 14.11454412 rev/day Decay rate: 3.79e-06 rev/day^2 Epoch rev: 30195 Checksum: 309
Satellite: NOAA-19 Catalog number: 33591 Epoch time: 11090.45833016 Element set: 912 Inclination: 098.8209 deg RA of node: 031.9420 deg Eccentricity: 0.0013847 Arg of perigee: 193.1950 deg Mean anomaly: 166.8848 deg Mean motion: 14.11146750 rev/day Decay rate: 4.26e-06 rev/day^2 Epoch rev: 11042 Checksum: 291
/EX SB KEPS @ AMSAT $ORB11090.M Orbital Elements 11090.MISC
HR AMSAT ORBITAL ELEMENTS FOR MANNED AND MISCELLANEOUS SATELLITES FROM WA5QGD FORT WORTH,TX March 31, 2011 Send Subscribe/unsubscribe to KEPS at http://www.amsat.org/mailman/listinfo/keps BID: ORB11090.M TO ALL RADIO AMATEURS BT
Satellite: HUBBLE Catalog number: 20580 Epoch time: 11089.34313701 Element set: 737 Inclination: 028.4694 deg RA of node: 171.4456 deg Eccentricity: 0.0003146 Arg of perigee: 006.2292 deg Mean anomaly: 353.8428 deg Mean motion: 15.01235407 rev/day Decay rate: 1.099e-05 rev/day^2 Epoch rev: 94779 Checksum: 293
Satellite: ISS Catalog number: 25544 Epoch time: 11090.89420299 Element set: 105 Inclination: 051.6463 deg RA of node: 197.5289 deg Eccentricity: 0.0002269 Arg of perigee: 044.2550 deg Mean anomaly: 057.5836 deg Mean motion: 15.72489204 rev/day Decay rate: 3.9955e-04 rev/day^2 Epoch rev: 70873 Checksum: 324
Satellite: CO-58 Catalog number: 28895 Epoch time: 11090.69489959 Element set: 837 Inclination: 097.9780 deg RA of node: 330.0326 deg Eccentricity: 0.0019165 Arg of perigee: 104.5180 deg Mean anomaly: 255.8195 deg Mean motion: 14.60041740 rev/day Decay rate: 5.03e-06 rev/day^2 Epoch rev: 28893 Checksum: 341
Satellite: FALCON Catalog number: 30776 Epoch time: 11089.47258695 Element set: 0072 Inclination: 035.4323 deg RA of node: 105.4975 deg Eccentricity: 0.0000359 Arg of perigee: 087.9535 deg Mean anomaly: 272.1221 deg Mean motion: 15.04278714 rev/day Decay rate: 1.966e-05 rev/day^2 Epoch rev: 22318 Checksum: 304
Satellite: MAST Catalog number: 31126 Epoch time: 11089.91457985 Element set: 0122 Inclination: 097.9030 deg RA of node: 121.5385 deg Eccentricity: 0.0095451 Arg of perigee: 054.9600 deg Mean anomaly: 306.0511 deg Mean motion: 14.53698334 rev/day Decay rate: 3.14e-06 rev/day^2 Epoch rev: 20971 Checksum: 284
Satellite: CAPE1 Catalog number: 31130 Epoch time: 11090.44757944 Element set: 140 Inclination: 097.9061 deg RA of node: 118.9281 deg Eccentricity: 0.0103654 Arg of perigee: 063.4445 deg Mean anomaly: 297.7351 deg Mean motion: 14.52325481 rev/day Decay rate: 7.01e-06 rev/day^2 Epoch rev: 20935 Checksum: 281
Satellite: COMPASS Catalog number: 32787 Epoch time: 11089.70679061 Element set: 0948 Inclination: 097.8539 deg RA of node: 154.9663 deg Eccentricity: 0.0016859 Arg of perigee: 073.1640 deg Mean anomaly: 287.1397 deg Mean motion: 14.82231942 rev/day Decay rate: 1.136e-05 rev/day^2 Epoch rev: 15793 Checksum: 345
Satellite: AAUSAT2 Catalog number: 32788 Epoch time: 11089.74755040 Element set: 0938 Inclination: 097.8543 deg RA of node: 155.2056 deg Eccentricity: 0.0016398 Arg of perigee: 073.6321 deg Mean anomaly: 286.6718 deg Mean motion: 14.82403215 rev/day Decay rate: 1.470e-05 rev/day^2 Epoch rev: 15795 Checksum: 325
Satellite: DO-64 Catalog number: 32789 Epoch time: 11089.71199605 Element set: 0956 Inclination: 097.8640 deg RA of node: 156.0336 deg Eccentricity: 0.0016424 Arg of perigee: 073.2815 deg Mean anomaly: 287.0188 deg Mean motion: 14.82748647 rev/day Decay rate: 1.987e-05 rev/day^2 Epoch rev: 15795 Checksum: 363
Satellite: CO-66 Catalog number: 32791 Epoch time: 11090.65304170 Element set: 939 Inclination: 097.8557 deg RA of node: 155.8588 deg Eccentricity: 0.0017131 Arg of perigee: 068.7849 deg Mean anomaly: 291.5182 deg Mean motion: 14.81958911 rev/day Decay rate: 8.43e-06 rev/day^2 Epoch rev: 15802 Checksum: 344
Satellite: RS-30 Catalog number: 32953 Epoch time: 11090.39516629 Element set: 599 Inclination: 082.5024 deg RA of node: 211.0736 deg Eccentricity: 0.0018920 Arg of perigee: 193.0841 deg Mean anomaly: 166.9749 deg Mean motion: 12.43011288 rev/day Decay rate: 1.0e-07 rev/day^2 Epoch rev: 12942 Checksum: 289
Satellite: TACSAT-3 Catalog number: 35001 Epoch time: 11090.76264302 Element set: 549 Inclination: 040.4483 deg RA of node: 282.0948 deg Eccentricity: 0.0024719 Arg of perigee: 351.9286 deg Mean anomaly: 008.1207 deg Mean motion: 15.46129347 rev/day Decay rate: 2.0312e-04 rev/day^2 Epoch rev: 10508 Checksum: 274
Satellite: PHARMSAT Catalog number: 35002 Epoch time: 11090.78326069 Element set: 510 Inclination: 040.4696 deg RA of node: 279.4622 deg Eccentricity: 0.0025808 Arg of perigee: 356.6703 deg Mean anomaly: 003.4072 deg Mean motion: 15.46154006 rev/day Decay rate: 1.5846e-04 rev/day^2 Epoch rev: 10511 Checksum: 269
Satellite: HAWKSAT1 Catalog number: 35003 Epoch time: 11090.74768261 Element set: 564 Inclination: 040.4562 deg RA of node: 260.4218 deg Eccentricity: 0.0022288 Arg of perigee: 019.6327 deg Mean anomaly: 340.5519 deg Mean motion: 15.55613817 rev/day Decay rate: 5.6970e-04 rev/day^2 Epoch rev: 10532 Checksum: 287
Satellite: CP6 Catalog number: 35004 Epoch time: 11089.86012998 Element set: 567 Inclination: 040.4584 deg RA of node: 260.5917 deg Eccentricity: 0.0022137 Arg of perigee: 021.1843 deg Mean anomaly: 338.9863 deg Mean motion: 15.58618244 rev/day Decay rate: 6.6046e-04 rev/day^2 Epoch rev: 10523 Checksum: 311
